Flag for Germany

Past Weather in Braunschweig, Lower Saxony, Germany — Yesterday and Last 2 Weeks

Now
63 °F

Sunny.


Feels Like: 63 °F
Forecast: 66 / 55 °F
Wind: 2 mph from North

Location: Braunschweig Wolfsburg

Current Time: Jul 14, 2020 at 10:00:17 am

Latest Report: Jul 14, 2020 at 7:50 am


Visibility: 10 mi

Pressure: 29.98 "Hg

Humidity: 64%

Dew Point: 50 °F

Location of BraunschweigLocation

Past Weather in Braunschweig — Graph

°F

Braunschweig Temperature Yesterday

Maximum temperature yesterday: 77 °F (at 5:20 pm)
Minimum temperature yesterday: 48 °F (at 6:50 am)
Average temperature yesterday: 69 °F

High & Low Weather Summary for the Past Weeks

 TemperatureHumidityPressure
High77 °F (Jul 13, 5:20 pm)94% (Jul 1, 10:50 am)30.36 "Hg (Jul 1, 10:50 am)
Low48 °F (Jul 13, 6:50 am)31% (Jun 29, 1:50 pm)29.71 "Hg (Jul 1, 4:50 pm)
Average66 °F62%29.96 "Hg
* Reported Jun 29 7:50 am — Jul 14 7:50 am, Braunschweig. Weather by CustomWeather, © 2020

Note: Actual official high and low records may vary slightly from our data, if they occured in-between our weather recording intervals... More about our weather records

Braunschweig Weather History for the Previous 24 Hours

Scroll right to see more
 ConditionsComfort  
Time TempWeatherWind HumidityBarometerVisibility
7:50 am
Tue, Jul 14
63 °FSunny.2 mph64%29.98 "Hg10 mi
7:20 am59 °FSunny.1 mph72%30.01 "Hg10 mi
5:50 pm
Mon, Jul 13
77 °FSunny.6 mph32%30.12 "Hg10 mi
5:20 pm77 °FPassing clouds.7 mph34%30.12 "HgN/A
4:50 pm75 °FPassing clouds.7 mph34%30.15 "HgN/A
4:20 pm75 °FPassing clouds.6 mph31%30.15 "HgN/A
3:50 pm75 °FSunny.5 mph34%30.15 "Hg10 mi
3:20 pm73 °FPassing clouds.7 mph36%30.18 "HgN/A
2:50 pm73 °FPassing clouds.8 mph36%30.18 "HgN/A
2:20 pm73 °FSunny.7 mph36%30.18 "Hg10 mi
1:50 pm73 °FPassing clouds.7 mph36%30.21 "HgN/A
1:20 pm73 °FSunny.3 mph38%30.21 "Hg10 mi
12:50 pm70 °FPassing clouds.6 mph40%30.24 "HgN/A
12:20 pm72 °FSunny.5 mph36%30.24 "Hg10 mi
11:50 am70 °FSunny.5 mph38%30.24 "Hg10 mi
11:20 am70 °FSunny.5 mph40%30.24 "Hg10 mi
10:50 am70 °FSunny.3 mph40%30.27 "Hg10 mi
10:20 am68 °FPassing clouds.5 mph43%30.27 "HgN/A
Weather by CustomWeather, © 2020

See weather overview